Station SFXC1 - Rush Ranch, San Francisco Bay Reserve, CA Image indicating link to RSS feed of recent meteorological observations for station SFXC1


Conditions at SFXC1 as of
(7:45 am PDT)
1445 GMT on 07/23/2024:
     

Click on the graph icon in the table below to see a time series plot of the last five days of that observation.

5-day plot - Wind Direction Wind Direction (WDIR): W ( 260 deg true )
5-day plot - Wind Speed Wind Speed (WSPD): 6.0 kts
5-day plot - Atmospheric Pressure Atmospheric Pressure (PRES):29.83 in
5-day plot - Air Temperature Air Temperature (ATMP): 73.9 °F
5-day plot - Dew Point Dew Point (DEWP): 58.1 °F
5-day plot -  Wind Speed, Wind Gust and Atmospheric Pressure Combined plot of Wind Speed, Gust, and Air Pressure
Previous observations
TIME
(PDT)
5-day plot - Wind Direction
WDIR
 
5-day plot - Wind Speed
WSPD
kts
5-day plot - Wind Gust
GST
kts
5-day plot - Wave Height
WVHT
ft
5-day plot - Dominant Wave Period
DPD
sec
5-day plot - Average Wave Period
APD
sec
5-day plot - Mean Wave Direction
MWD
 
5-day plot - Atmospheric Pressure
PRES
in
5-day plot - Pressure Tendency
PTDY
in
5-day plot - Air Temperature
ATMP
°F
5-day plot - Water Temperature
WTMP
°F
5-day plot - Dew Point
DEWP
°F
5-day plot - Salinity
SAL
psu
5-day plot - Visibility
VIS
nmi
5-day plot - Tide (above MLLW)
TIDE
ft
2024-07-23 07:30 am W 5.1-----29.83- 72.3- 57.6---
2024-07-23 07:15 am W 5.1-----29.83- 71.2- 56.8---
2024-07-23 07:00 am W 5.1-----29.83+0.06 70.2- 56.3---
2024-07-23 06:45 am W 5.1-----29.83- 69.3- 55.9---
2024-07-23 06:30 amWNW 4.1-----29.80- 68.0- 55.6---
2024-07-23 06:15 am W 5.1-----29.80- 68.2- 55.4---
2024-07-23 06:00 am W 8.0-----29.80+0.03 68.9- 54.7---
2024-07-23 05:45 am W 8.0-----29.80- 68.9- 55.2---
2024-07-23 05:30 am W 5.1-----29.80- 68.0- 55.2---
2024-07-23 05:15 am W 6.0-----29.80- 68.2- 55.4---
2024-07-23 05:00 am W 7.0-----29.77+0.00 67.5- 55.9---
2024-07-23 04:45 am W 5.1-----29.77- 67.8- 55.4---
2024-07-23 04:30 am W 6.0-----29.77- 68.4- 55.0---
2024-07-23 04:15 am W 7.0-----29.77- 67.6- 55.8---
2024-07-23 04:00 am W 6.0-----29.77+0.00 67.3- 55.8---
2024-07-23 03:45 amWNW 7.0-----29.77- 67.3- 55.4---
2024-07-23 03:30 am W 7.0-----29.77- 67.6- 54.9---
2024-07-23 03:15 am W 8.0-----29.77- 68.2- 54.5---
2024-07-23 03:00 am W 8.0-----29.77+0.00 68.0- 54.3---
2024-07-23 02:45 am W 9.9-----29.77- 68.2- 54.9---
2024-07-23 02:30 am W 8.9-----29.77- 68.2- 55.4---
2024-07-23 02:15 am W 8.9-----29.77- 67.8- 55.4---
2024-07-23 02:00 am W 8.9-----29.77+0.00 67.8- 55.4---
2024-07-23 01:45 am W 8.9-----29.77- 67.6- 55.2---
2024-07-23 01:30 am W 8.9-----29.77- 67.6- 55.2---
2024-07-23 01:15 am W 8.9-----29.77- 67.8- 55.4---
2024-07-23 01:00 amWNW 7.0-----29.77+0.03 68.0- 55.2---
2024-07-23 12:45 amWNW 7.0-----29.77- 68.2- 55.4---
2024-07-23 12:30 amWNW 8.0-----29.77- 68.5- 55.8---
2024-07-23 12:15 amWNW 6.0-----29.77- 68.4- 56.8---
2024-07-23 12:00 amWNW 5.1-----29.77+0.03 69.3- 57.2---
2024-07-22 11:45 pm W 6.0-----29.77- 70.5- 57.6---
2024-07-22 11:30 pm W 7.0-----29.77- 70.9- 57.6---
2024-07-22 11:15 pm W 6.0-----29.77- 70.5- 57.2---
2024-07-22 11:00 pm W 5.1-----29.77+0.03 70.3- 57.0---
2024-07-22 10:45 pm W 5.1-----29.77- 70.0- 57.0---
2024-07-22 10:30 pm W 5.1-----29.77- 70.2- 57.2---
2024-07-22 10:15 pm W 5.1-----29.77- 71.1- 56.8---
2024-07-22 10:00 pm W 5.1-----29.74+0.03 71.2- 57.7---
2024-07-22 09:45 pm W 5.1-----29.74- 72.0- 58.1---
2024-07-22 09:30 pm W 4.1-----29.74- 72.0- 58.5---
2024-07-22 09:15 pm W 4.1-----29.74- 72.3- 58.8---
2024-07-22 09:00 pmWSW 4.1-----29.74+0.03 73.6- 59.2---
2024-07-22 08:45 pm W 6.0-----29.74- 75.7- 57.7---
2024-07-22 08:30 pm W 8.9-----29.74- 76.6- 57.6---
2024-07-22 08:15 pm W 9.9-----29.74- 77.2- 58.1---
2024-07-22 08:00 pm W 9.9-----29.74+0.00 78.4- 58.6---
2024-07-22 07:45 pm W 11.1-----29.74- 79.7- 58.8---
2024-07-22 07:30 pm W 11.1-----29.74- 81.1- 59.5---
2024-07-22 07:15 pm W 11.1-----29.71- 82.4- 60.1---
2024-07-22 07:00 pm W 12.0-----29.71-0.03 83.5- 60.4---
2024-07-22 06:45 pm W 13.0-----29.71- 84.6- 60.8---
2024-07-22 06:30 pm W 14.0-----29.71- 85.3- 60.8---
2024-07-22 06:15 pm W 14.0-----29.71- 85.8- 60.6---
2024-07-22 06:00 pm W 14.0-----29.71-0.06 86.5- 61.3---
2024-07-22 05:45 pm W 14.0-----29.71- 87.3- 62.1---
2024-07-22 05:30 pm W 14.0-----29.71- 88.2- 62.1---
2024-07-22 05:15 pm W 13.0-----29.71- 89.2- 63.1---
2024-07-22 05:00 pm W 11.1-----29.74-0.06 90.3- 63.3---
2024-07-22 04:45 pm W 12.0-----29.74- 91.0- 63.3---
2024-07-22 04:30 pm W 12.0-----29.74- 92.5- 63.9---
2024-07-22 04:15 pm W 11.1-----29.74- 93.2- 64.6---
2024-07-22 04:00 pm W 9.9-----29.74-0.06 93.9- 63.7---
2024-07-22 03:45 pm W 8.9-----29.74- 94.1- 63.1---
2024-07-22 03:30 pm W 8.9-----29.77- 94.1- 63.1---
2024-07-22 03:15 pm W 8.0-----29.77- 94.1- 63.1---
2024-07-22 03:00 pm W 8.0-----29.77-0.03 93.9- 63.7---
2024-07-22 02:45 pm W 7.0-----29.77- 93.9- 65.1---
2024-07-22 02:30 pm W 6.0-----29.77- 93.4- 64.0---
2024-07-22 02:15 pm W 6.0-----29.77- 92.8- 64.9---
2024-07-22 02:00 pm W 6.0-----29.80+0.00 91.8- 64.8---
2024-07-22 01:45 pm W 6.0-----29.80- 91.0- 64.8---
2024-07-22 01:30 pm W 5.1-----29.80- 90.1- 63.9---
2024-07-22 01:15 pm W 6.0-----29.80- 88.7- 63.9---
2024-07-22 01:00 pm W 6.0-----29.80-0.03 87.6- 63.7---
2024-07-22 12:45 pm W 6.0-----29.80- 86.5- 63.9---
2024-07-22 12:30 pm W 7.0-----29.80- 85.6- 63.7---
2024-07-22 12:15 pm W 7.0-----29.80- 84.9- 63.5---
2024-07-22 12:00 pm W 6.0-----29.80-0.03 84.4- 63.1---
2024-07-22 11:45 am W 5.1-----29.80- 83.1- 62.4---
2024-07-22 11:30 am W 6.0-----29.80- 82.2- 62.2---
2024-07-22 11:15 am W 6.0-----29.80- 81.0- 62.1---
2024-07-22 11:00 am W 7.0-----29.80-0.03 79.3- 61.2---
2024-07-22 10:45 am W 7.0-----29.83- 77.9- 60.8---
2024-07-22 10:30 am W 7.0-----29.83- 76.6- 60.6---
2024-07-22 10:15 am W 8.0-----29.83- 75.0- 60.4---
2024-07-22 10:00 am W 8.9-----29.83+0.03 73.4- 59.9---
2024-07-22 09:45 am W 8.9-----29.83- 72.0- 59.7---
2024-07-22 09:30 am W 8.9-----29.83- 71.1- 59.7---
2024-07-22 09:15 am W 8.9-----29.83- 70.0- 59.5---
2024-07-22 09:00 am W 8.9-----29.83+0.03 68.9- 59.4---
2024-07-22 08:45 am W 8.0-----29.83- 67.6- 58.8---
2024-07-22 08:30 am W 9.9-----29.83- 66.0- 58.1---
2024-07-22 08:15 am W 8.9-----29.83- 65.1- 57.9---
2024-07-22 08:00 am W 8.9-----29.83+0.03 64.0- 57.6---